Location: Newark
(5.8900°S, 42.6378°W)
Time: 18:57:46
(UTC+00:00)

Vanguard 1 - Visible Passes

Search period start: 14 October 2019 00:00
Search period end: 24 October 2019 00:00
Orbit: 653 x 3830 km, 34.3° (Epoch: 14 October)

Date Brightness Start Highest point End Pass type
(mag) Time Alt. Az. Time Alt. Az. Time Alt. Az.
14 Oct 13.8 03:55:14 23° NE 03:55:14 23° NE 04:09:26 10° ENE visible
14 Oct 13.0 06:08:00 26° NNW 06:23:20 56° NE 06:39:55 10° ESE visible
15 Oct 13.6 04:15:43 30° NNE 04:16:24 30° NNE 04:33:49 10° E visible
15 Oct 12.8 06:28:30 25° NW 06:45:12 69° NE 07:01:36 10° ESE visible
15 Oct 12.8 21:03:54 10° NW 21:06:38 12° NNW 21:09:52 10° N visible
16 Oct 13.4 04:36:09 37° NNE 04:38:52 38° NE 04:57:18 10° E visible
16 Oct 12.6 06:48:55 23° NW 07:06:55 84° NE 07:22:59 10° SE visible
17 Oct 14.2 02:43:46 10° ENE 02:43:46 10° ENE 02:44:11 10° ENE visible
17 Oct 13.2 04:56:32 44° NNE 05:01:03 47° NE 05:20:03 10° ESE visible
17 Oct 12.6 07:09:18 20° WNW 07:28:30 80° SW 07:44:07 10° SE visible
18 Oct 14.0 03:04:06 17° ENE 03:04:06 17° ENE 03:10:11 10° ENE visible
18 Oct 13.0 05:16:51 50° N 05:23:02 59° NE 05:42:15 10° ESE visible
18 Oct 12.6 07:29:37 15° WNW 07:50:02 66° SW 08:05:06 10° SE visible
19 Oct 13.8 03:24:20 25° ENE 03:24:20 25° ENE 03:34:52 10° E visible
19 Oct 12.8 05:37:05 53° NNW 05:44:51 72° NE 06:04:02 10° ESE visible
19 Oct 12.8 07:49:50 10° WNW 08:11:35 53° SW 08:25:56 10° SE visible
20 Oct 13.5 03:44:29 35° ENE 03:44:29 35° ENE 03:58:33 10° E visible
20 Oct 12.7 05:57:13 50° NW 06:06:35 86° NE 06:25:30 10° SE visible
21 Oct 13.2 04:04:33 46° ENE 04:04:33 46° ENE 04:21:28 10° ESE visible
21 Oct 12.7 06:17:17 44° WNW 06:28:17 80° SW 06:46:44 10° SE visible
22 Oct 12.9 04:24:32 59° ENE 04:24:32 59° ENE 04:43:48 10° ESE visible
22 Oct 12.8 06:37:15 36° WNW 06:49:59 66° SW 07:07:49 10° SE visible
23 Oct 14.1 02:31:41 15° E 02:31:41 15° E 02:35:01 10° E visible
23 Oct 12.7 04:44:24 73° NE 04:44:24 73° NE 05:05:42 10° ESE visible
23 Oct 12.9 06:57:07 27° W 07:11:46 54° SW 07:28:47 10° SE visible
